Wind_Speed
4 4 4 5 5 5 6 5 5 4 5 5 5 2 2 3 4 6 8 10 12 9 10 9 7 6 4 14 14 3 6 10 16 20 17 17 19 18 20 21 19 17 15 20 16
3 3 4 3 4 4 4 4 5 5 3 3 4 3 2 3 3 4 5 9 10 10 12 11 9 4 3 3 8 4 3 3 10 17 20 16 17 12 13 19 20 17 15 17 16
4 4 4 4 5 5 6 5 5 6 4 2 1 1 1 1 4 5 6 8 11 13 13 14 11 6 1 7 4 6 11 3 3 10 20 14 17 9 10 17 20 18 15 14 17
4 4 5 5 6 7 9 9 9 8 8 6 3 2 2 2 4 6 7 8 11 13 14 14 12 5 4 4 2 6 10 8 5 2 19 10 19 9 6 17 21 21 17 13 14
4 2 1 2 4 5 6 7 8 11 11 11 9 8 8 5 3 5 7 9 11 13 14 13 10 7 5 6 14 9 25 16 6 3 9 17 14 13 6 13 18 20 19 14 12
10 7 5 5 4 3 3 4 5 7 9 12 12 12 12 9 6 5 6 9 12 13 8 7 9 10 6 6 17 12 14 8 6 5 4 15 13 13 9 13 14 15 18 18 13
12 8 5 7 6 7 7 5 2 5 8 10 13 15 15 13 9 8 8 9 11 13 7 2 11 12 10 10 8 14 16 18 7 6 9 6 6 8 8 10 10 11 18 12 14
13 12 4 4 6 5 6 8 8 3 4 9 12 15 16 15 14 12 10 10 11 9 8 6 9 18 16 14 16 20 29 17 16 10 8 3 6 4 2 8 7 4 12 14 7
14 13 12 12 4 1 3 3 4 4 6 1 8 13 17 17 18 17 16 13 11 9 9 10 12 16 22 20 16 23 14 14 17 13 10 13 6 4 2 2 6 3 4 12 14
12 12 10 10 9 8 5 5 3 3 4 6 3 7 12 16 19 20 19 17 14 12 12 13 12 13 16 21 18 15 12 17 17 16 17 16 9 5 8 5 5 5 6 6 12
8 9 9 9 7 7 7 6 7 6 4 5 5 6 11 17 20 21 21 21 20 17 16 16 13 8 13 18 25 26 20 18 16 19 19 10 12 8 14 10 8 7 9 10 10
7 6 6 7 7 7 7 9 9 9 8 8 4 7 7 12 17 20 22 22 21 20 19 18 14 14 18 20 22 23 26 28 24 13 16 17 16 21 15 18 13 13 15 14 14
9 7 5 6 6 6 6 6 8 10 11 12 7 7 10 10 15 18 22 23 24 25 23 18 19 22 19 21 23 22 22 24 24 25 20 17 14 11 12 13 17 13 14 16 14
10 8 6 7 6 7 7 6 8 10 9 11 11 3 8 10 12 15 21 24 24 25 26 22 28 24 24 24 24 25 20 24 27 26 25 21 18 13 15 16 18 19 12 14 16
7 7 7 7 8 9 9 8 9 10 15 14 14 9 8 8 11 14 19 24 26 28 25 26 29 30 28 26 29 24 25 27 28 27 30 23 16 21 19 21 15 16 8 9 10
11 12 12 12 12 12 13 12 11 11 18 17 14 18 12 8 8 11 17 21 27 29 25 27 30 30 28 31 34 30 31 29 30 30 27 15 18 15 16 22 21 16 11 8 5
18 20 19 16 17 17 17 17 17 16 14 14 17 18 19 16 10 10 15 20 24 26 26 27 29 27 31 33 36 36 35 36 35 33 24 23 14 13 13 19 18 15 7 12 7
21 21 21 18 17 17 19 21 21 20 19 18 17 17 20 20 17 10 15 19 23 25 29 31 30 26 26 32 37 39 40 39 39 34 26 22 18 16 16 17 23 20 14 6 15
24 26 24 22 20 21 22 24 26 25 25 23 22 19 21 23 22 18 15 20 24 24 26 28 30 31 31 32 36 40 43 38 38 36 35 28 20 27 26 24 17 10 12 8 9
30 30 29 28 25 26 26 27 29 30 30 29 27 25 23 24 25 24 21 19 24 23 26 28 28 31 30 33 36 35 34 40 42 41 40 34 27 31 28 23 20 23 18 16 18
32 32 33 31 31 30 29 30 33 35 32 31 30 29 28 28 27 29 27 23 26 24 26 27 28 32 31 35 31 34 37 39 44 46 43 40 35 36 28 24 23 23 24 23 23
33 33 33 33 34 35 34 32 33 36 34 33 33 32 31 31 32 33 33 27 27 26 24 25 27 32 33 35 31 39 41 38 40 46 49 44 38 36 35 30 31 28 26 23 25
39 40 37 37 36 38 37 32 30 34 38 35 35 35 34 33 36 38 37 33 31 29 27 26 26 30 33 29 30 35 39 41 41 39 44 48 43 38 33 32 34 33 32 30 31
47 47 46 42 40 41 37 36 35 36 38 43 38 37 34 36 38 41 38 38 37 33 31 32 31 31 33 32 35 39 40 40 41 42 40 43 40 41 39 34 30 33 36 36 36
50 49 50 50 45 45 45 43 42 40 41 43 43 41 39 36 39 43 42 40 42 39 33 33 33 31 36 34 36 35 35 37 38 41 42 39 39 42 44 40 36 31 39 37 36
56 53 51 52 52 50 48 45 46 44 41 41 45 43 43 38 40 41 44 45 45 44 41 36 37 31 40 39 40 40 38 33 34 36 45 42 40 45 50 47 48 41 46 28 43
58 55 55 52 51 54 51 49 46 42 41 42 42 42 43 43 40 40 41 47 47 50 47 42 42 40 36 45 44 38 41 40 35 35 43 45 40 44 51 51 51 50 49 44 29
Wind_Direction
143 148 152 164 170 174 171 164 163 147 121 101 93 129 188 182 184 209 211 197 186 176 147 126 115 107 123 111 130 124 114 108 92 89 91 87 68 58 69 77 77 81 80 87 79
170 171 179 178 185 190 176 175 179 166 142 115 94 87 134 206 223 202 224 220 207 190 166 165 143 113 124 222 153 205 146 167 95 96 103 89 77 68 68 77 87 85 82 86 91
172 188 206 214 220 230 228 210 199 210 202 199 81 31 332 196 215 210 208 226 218 208 187 184 181 183 172 32 266 151 182 77 6 109 113 98 91 73 83 84 86 88 86 89 94
169 187 193 199 213 219 227 230 225 226 229 225 233 254 273 307 260 229 213 219 224 226 200 205 217 220 244 356 145 202 204 200 279 67 109 99 109 103 92 98 95 93 87 81 83
88 115 165 212 223 222 227 230 232 230 232 232 233 242 243 251 282 245 233 221 231 236 217 215 211 206 230 285 243 223 177 203 254 228 109 135 119 118 106 87 91 97 98 91 88
50 42 28 16 347 326 290 236 233 231 228 231 237 241 240 238 245 253 249 243 238 247 252 237 201 220 215 222 216 188 206 197 192 264 256 154 134 132 129 103 89 90 94 100 93
54 48 26 17 349 348 336 352 296 217 222 226 226 233 241 242 231 243 258 256 254 257 281 261 202 215 188 208 207 210 201 216 204 207 174 136 164 109 114 106 97 98 100 85 93
68 63 55 17 32 339 328 349 359 22 202 212 226 232 234 238 238 240 239 251 255 255 249 234 195 206 207 227 246 244 212 232 221 191 169 232 188 116 130 104 97 91 106 106 110
62 58 60 60 56 317 358 321 356 343 331 290 212 224 235 235 236 233 236 237 251 260 250 228 217 210 210 206 220 232 215 215 211 240 208 218 243 329 206 148 126 128 141 134 136
54 41 43 49 57 51 49 43 38 35 334 330 294 212 232 245 237 238 234 232 234 243 252 243 238 228 226 213 220 237 246 250 246 237 231 268 207 259 237 265 184 163 221 175 152
15 22 24 25 36 41 30 36 36 23 7 20 329 269 227 225 231 237 235 234 232 235 242 248 257 238 229 224 225 232 236 220 231 234 247 262 242 241 213 224 227 198 214 213 188
357 6 1 356 6 20 29 22 16 13 15 10 1 289 254 231 233 231 236 238 236 232 234 242 254 230 228 228 228 227 228 234 229 245 248 254 241 231 232 226 233 225 209 210 215
327 336 331 344 346 359 11 1 2 4 359 354 11 328 286 270 238 232 232 234 234 235 233 232 233 232 226 230 241 232 228 233 241 237 244 239 244 239 233 250 198 215 213 214 213
324 323 318 315 332 336 338 338 335 336 335 344 345 7 316 300 269 246 235 236 234 235 233 224 225 233 232 227 231 240 233 240 238 246 246 260 228 223 220 217 210 220 225 219 214
312 312 303 301 312 315 311 308 312 317 320 330 329 326 329 291 274 264 248 239 237 238 236 231 231 226 227 224 227 232 233 235 247 250 243 253 232 236 229 206 217 193 202 214 234
289 289 289 291 290 296 290 287 294 304 309 312 316 320 320 301 290 274 254 244 242 242 236 235 237 235 233 219 226 222 225 231 240 247 239 250 238 222 220 231 206 202 188 221 212
285 287 283 283 280 277 278 277 283 287 292 292 303 310 312 310 296 272 260 249 242 241 234 232 233 231 232 225 228 228 221 230 240 244 232 238 244 213 206 231 197 182 176 201 213
286 289 284 280 274 274 276 275 276 277 278 282 287 292 293 294 294 266 267 259 250 238 233 229 228 225 233 234 231 232 232 231 238 247 240 230 219 198 197 194 195 183 162 160 197
283 284 281 277 274 271 272 277 278 279 279 278 280 280 280 283 283 279 250 258 258 248 235 232 230 227 225 227 233 236 234 236 237 244 247 233 221 215 217 214 220 210 188 210 226
280 278 277 272 274 275 276 277 276 277 279 279 279 281 283 281 283 280 273 259 257 246 234 231 228 231 226 230 230 233 236 233 235 235 243 239 236 225 227 224 213 230 225 213 235
277 276 276 274 271 273 276 274 274 274 277 280 279 280 285 284 281 280 278 252 255 244 237 236 231 230 226 233 237 236 233 231 230 233 238 245 228 226 217 241 239 240 239 230 235
282 279 279 276 273 273 274 272 271 273 274 273 274 276 277 280 277 273 273 264 248 247 234 234 238 228 230 230 229 229 235 239 236 233 236 238 240 240 237 239 232 228 228 232 242
281 279 279 279 276 273 273 270 267 268 270 271 270 269 270 267 268 269 268 266 261 242 236 235 240 240 230 224 215 218 227 230 230 230 236 239 239 239 239 237 236 232 223 232 241
277 277 277 275 273 272 271 265 261 258 259 265 265 262 259 260 261 263 261 260 258 254 235 235 236 233 232 217 219 221 230 235 230 230 228 237 236 234 236 231 233 234 230 222 229
274 273 275 275 270 268 268 267 264 258 256 264 264 262 260 254 252 256 258 250 249 248 242 242 243 229 220 212 215 224 229 237 241 237 235 234 233 231 231 232 234 234 228 223 221
271 270 266 269 268 267 265 266 265 261 258 252 257 259 260 255 253 253 253 249 241 245 244 244 249 240 221 218 219 224 230 229 231 240 234 229 229 229 231 232 234 243 228 232 238
266 266 264 264 265 266 265 262 260 257 253 252 254 251 252 256 254 252 256 244 242 239 238 240 247 249 237 228 224 229 231 229 233 230 241 237 228 231 236 239 240 243 242 246 237
Height
5882 5882 5882 5883 5883 5884 5885 5886 5886 5886 5887 5887 5888 5888 5888 5888 5888 5887 5888 5890 5891 5892 5895 5898 5899 5899 5900 5899 5901 5903 5901 5901 5900 5900 5904 5900 5900 5902 5900 5899 5900 5900 5899 5897 5897
5881 5882 5882 5883 5883 5884 5885 5886 5887 5887 5888 5888 5888 5888 5888 5888 5889 5889 5890 5890 5891 5893 5895 5897 5899 5899 5900 5901 5900 5901 5902 5902 5902 5903 5905 5903 5901 5905 5905 5904 5903 5902 5900 5900 5901
5881 5881 5882 5882 5883 5884 5884 5886 5887 5887 5888 5889 5889 5889 5889 5889 5890 5889 5890 5890 5891 5892 5895 5897 5898 5901 5900 5903 5902 5902 5902 5902 5903 5904 5905 5904 5904 5907 5908 5907 5908 5906 5904 5904 5904
5880 5880 5881 5881 5881 5882 5882 5884 5885 5887 5888 5889 5890 5889 5889 5889 5891 5889 5889 5890 5891 5892 5896 5897 5898 5900 5901 5901 5902 5903 5905 5905 5904 5907 5906 5908 5904 5908 5911 5909 5909 5908 5907 5906 5906
5878 5878 5879 5879 5880 5880 5881 5882 5884 5885 5886 5887 5888 5888 5888 5890 5890 5889 5889 5890 5890 5891 5895 5898 5901 5902 5903 5901 5903 5905 5903 5905 5905 5907 5909 5909 5908 5909 5913 5911 5911 5911 5911 5910 5910
5879 5879 5878 5878 5878 5878 5879 5880 5881 5883 5884 5885 5886 5886 5886 5889 5889 5890 5890 5890 5890 5890 5896 5898 5903 5903 5904 5903 5903 5905 5905 5904 5906 5907 5908 5909 5909 5910 5914 5913 5913 5912 5913 5912 5913
5882 5881 5880 5879 5878 5878 5878 5878 5879 5880 5881 5882 5883 5883 5884 5887 5888 5889 5889 5889 5889 5891 5896 5900 5903 5903 5904 5903 5905 5905 5904 5905 5906 5908 5909 5910 5915 5915 5916 5917 5917 5916 5912 5913 5914
5883 5882 5882 5881 5880 5879 5878 5878 5877 5878 5879 5880 5881 5881 5882 5884 5886 5887 5888 5888 5889 5891 5894 5898 5899 5902 5904 5905 5905 5905 5906 5906 5908 5908 5909 5913 5914 5914 5916 5917 5918 5920 5916 5915 5916
5886 5885 5883 5882 5881 5880 5879 5878 5877 5877 5876 5877 5879 5879 5879 5881 5882 5884 5886 5887 5888 5890 5891 5895 5898 5900 5902 5904 5904 5904 5906 5907 5907 5909 5911 5911 5912 5914 5917 5917 5918 5921 5922 5919 5918
5887 5886 5884 5883 5881 5880 5878 5878 5877 5877 5876 5876 5875 5878 5878 5878 5879 5880 5882 5884 5887 5888 5890 5892 5896 5899 5899 5903 5903 5902 5903 5904 5907 5908 5909 5911 5913 5916 5917 5918 5919 5920 5923 5922 5921
5888 5886 5885 5883 5882 5880 5878 5877 5878 5877 5875 5875 5874 5873 5873 5873 5875 5877 5878 5881 5883 5885 5887 5888 5892 5897 5898 5898 5900 5901 5901 5901 5903 5904 5905 5907 5912 5915 5916 5917 5917 5919 5923 5923 5923
5888 5887 5885 5884 5882 5880 5878 5877 5876 5875 5874 5873 5872 5870 5870 5870 5871 5873 5875 5877 5880 5881 5883 5887 5889 5891 5894 5895 5896 5898 5899 5898 5902 5903 5905 5907 5910 5912 5911 5914 5915 5918 5920 5922 5922
5886 5885 5884 5882 5881 5880 5878 5876 5874 5872 5871 5871 5871 5869 5867 5868 5868 5869 5871 5873 5875 5876 5880 5884 5886 5885 5888 5892 5893 5894 5897 5899 5899 5901 5902 5905 5907 5906 5908 5911 5914 5916 5918 5919 5919
5883 5882 5881 5881 5881 5878 5876 5875 5872 5870 5870 5869 5868 5868 5866 5864 5865 5866 5867 5870 5871 5872 5876 5881 5878 5882 5885 5887 5889 5892 5895 5895 5898 5896 5899 5899 5904 5907 5907 5909 5914 5915 5915 5917 5917
5880 5879 5879 5878 5877 5875 5874 5872 5870 5868 5866 5867 5864 5864 5864 5864 5862 5862 5863 5865 5866 5867 5874 5876 5875 5876 5880 5885 5885 5890 5892 5893 5894 5896 5896 5899 5903 5904 5907 5909 5912 5914 5912 5915 5916
5878 5877 5875 5874 5873 5872 5869 5868 5867 5867 5864 5862 5860 5859 5860 5860 5859 5858 5860 5861 5860 5863 5868 5869 5870 5874 5879 5881 5881 5885 5887 5889 5891 5891 5895 5896 5899 5903 5905 5907 5909 5911 5912 5914 5915
5873 5871 5869 5869 5868 5866 5864 5864 5863 5861 5862 5861 5858 5856 5855 5854 5854 5854 5854 5854 5856 5858 5862 5863 5865 5870 5873 5877 5878 5881 5883 5884 5886 5887 5894 5893 5897 5900 5898 5899 5900 5907 5910 5912 5913
5866 5865 5863 5863 5861 5860 5859 5858 5856 5856 5855 5855 5855 5853 5851 5851 5850 5851 5849 5849 5849 5851 5854 5857 5859 5864 5870 5873 5875 5876 5878 5879 5880 5883 5889 5889 5894 5894 5895 5896 5897 5901 5903 5908 5913
5859 5857 5856 5856 5855 5854 5853 5850 5848 5848 5848 5847 5847 5847 5846 5844 5845 5845 5845 5845 5843 5845 5850 5852 5854 5856 5860 5865 5869 5871 5872 5876 5877 5879 5881 5885 5890 5888 5890 5893 5898 5902 5902 5905 5908
5850 5849 5849 5847 5847 5846 5846 5844 5841 5840 5839 5838 5838 5839 5839 5839 5838 5837 5838 5840 5838 5841 5842 5845 5849 5850 5855 5858 5861 5864 5869 5869 5870 5871 5872 5878 5883 5884 5887 5891 5893 5897 5899 5899 5902
5841 5839 5839 5838 5838 5838 5837 5836 5832 5830 5832 5832 5830 5830 5830 5829 5830 5828 5831 5833 5832 5834 5836 5839 5843 5844 5849 5850 5857 5859 5859 5862 5864 5865 5866 5869 5875 5877 5881 5887 5889 5892 5896 5895 5898
5830 5829 5828 5828 5828 5827 5826 5827 5825 5821 5822 5821 5821 5821 5821 5820 5820 5820 5822 5826 5827 5829 5830 5834 5836 5838 5842 5843 5848 5850 5852 5854 5856 5860 5860 5863 5866 5870 5875 5879 5883 5886 5889 5891 5893
5819 5817 5818 5816 5816 5813 5814 5815 5815 5812 5810 5812 5812 5813 5813 5813 5812 5811 5813 5816 5818 5822 5824 5827 5828 5833 5834 5837 5840 5841 5842 5845 5848 5852 5854 5858 5861 5863 5867 5872 5875 5879 5882 5885 5886
5805 5803 5803 5805 5804 5801 5802 5801 5801 5801 5800 5797 5801 5802 5804 5804 5803 5802 5805 5806 5808 5811 5816 5818 5820 5825 5828 5831 5834 5835 5836 5838 5841 5843 5847 5849 5855 5858 5859 5864 5868 5871 5873 5876 5879
5789 5788 5786 5786 5789 5789 5788 5789 5788 5788 5787 5787 5787 5789 5791 5794 5794 5793 5796 5799 5800 5802 5805 5811 5813 5817 5822 5823 5826 5828 5829 5831 5834 5838 5841 5845 5847 5852 5853 5856 5859 5862 5866 5861 5869
5770 5771 5771 5769 5767 5770 5772 5774 5773 5774 5776 5775 5774 5776 5777 5782 5783 5785 5786 5788 5792 5794 5797 5800 5804 5809 5813 5815 5818 5820 5821 5825 5828 5831 5832 5835 5840 5844 5846 5850 5852 5855 5861 5859 5860
5748 5749 5750 5753 5751 5751 5753 5754 5757 5759 5761 5761 5762 5764 5765 5768 5771 5774 5777 5778 5782 5786 5788 5792 5795 5800 5804 5807 5811 5812 5813 5816 5821 5824 5825 5829 5836 5838 5840 5843 5845 5847 5851 5853 5854